Preview of NWS' New Version of Forecast
This preview is not operational and should not be used for support decisions.

Regional Weather Roundup (RWR)

Issued by National Weather Service (NWS)

                            
000
ASUS43 KBIS 241002
RWRND 

NORTH DAKOTA REGIONAL WEATHER ROUNDUP
NATIONAL WEATHER SERVICE BISMARCK ND
500 AM CDT WED APR 24 2019

NOTE: "FAIR" INDICATES FEW OR NO CLOUDS BELOW 12,000 FEET WITH NO
SIGNIFICANT WEATHER AND/OR OBSTRUCTIONS TO VISIBILITY.


NDZ001>003-009>011-017-241100-
NORTHWEST NORTH DAKOTA
  
CITY           SKY/WX    TMP DP  RH WIND       PRES   REMARKS
WILLISTON      CLEAR     46  40  79 N8        29.77R                  
MINOT          CLOUDY    52  38  58 N17G30    29.69S                  
MINOT AFB      PTCLDY    51  38  61 NE13      29.68F                  
$$
 
NDZ018>021-031>035-040>046-241100-
SOUTHWEST NORTH DAKOTA
  
CITY           SKY/WX    TMP DP  RH WIND       PRES   REMARKS
BISMARCK       MOCLDY    46  39  76 CALM      29.75F                  
DICKINSON      MOCLDY    51  41  68 W13       29.76R                  
GARRISON         N/A     48  35  60 NW12      29.73R                  
HETTINGER ARPT CLOUDY    47  41  80 NW7       29.81S                  
$$
 
NDZ004>008-012>016-024-026-027-054-241100-
NORTHEAST NORTH DAKOTA
  
CITY           SKY/WX    TMP DP  RH WIND       PRES   REMARKS
GRAND FORKS    CLOUDY    49  42  77 W5        29.63R                  
GRND FRKS AFB  PTCLDY    51  43  74 W7        29.64R                  
DEVILS LAKE    CLEAR     40  35  83 SW10      29.68S                  
$$
 
NDZ022-023-025-028>030-036>039-047>053-241100-
SOUTHEAST NORTH DAKOTA
  
CITY           SKY/WX    TMP DP  RH WIND       PRES   REMARKS
FARGO          CLOUDY    55  41  59 S13       29.68F                  
JAMESTOWN      PTCLDY    52  41  66 W10       29.68F                  
$$